Time,TemperatureF,DewpointF,PressureIn,WindDirection,WindDirectionDegrees,WindSpeedMPH,WindSpeedGustMPH,Humidity,HourlyPrecipIn,Conditions,Clouds,dailyrainin,SoftwareType,DateUTC
2013-01-22 00:00:00,60.3,56.1,30.06,NNW,329,0.0,4.0,86,0.00,,SKC,0.00,VWS V14.01,2013-01-22 05:00:00,
2013-01-22 00:05:00,60.2,56.0,30.06,NNW,332,2.0,2.0,86,0.00,,SKC,0.00,VWS V14.01,2013-01-22 05:05:00,
2013-01-22 00:10:00,60.1,55.9,30.07,NW,313,1.0,5.0,86,0.00,,SKC,0.00,VWS V14.01,2013-01-22 05:10:00,
2013-01-22 00:15:00,60.0,55.8,30.07,NW,307,2.0,5.0,86,0.00,,SKC,0.00,VWS V14.01,2013-01-22 05:15:00,
2013-01-22 00:20:00,60.0,55.8,30.07,NW,322,1.0,5.0,86,0.00,,SKC,0.00,VWS V14.01,2013-01-22 05:20:00,
2013-01-22 00:24:00,60.1,55.9,30.07,WNW,286,4.0,5.0,86,0.00,,SKC,0.00,VWS V14.01,2013-01-22 05:24:00,
2013-01-22 00:29:00,60.1,55.9,30.07,NW,325,2.0,4.0,86,0.00,,SKC,0.00,VWS V14.01,2013-01-22 05:29:00,
2013-01-22 00:34:00,60.1,55.9,30.07,NW,318,1.0,4.0,86,0.00,,SKC,0.00,VWS V14.01,2013-01-22 05:34:00,
2013-01-22 00:39:00,60.2,55.7,30.08,NNW,339,1.0,3.0,85,0.00,,SKC,0.00,VWS V14.01,2013-01-22 05:39:00,
2013-01-22 00:44:00,60.2,55.7,30.08,NW,315,3.0,4.0,85,0.00,,SKC,0.00,VWS V14.01,2013-01-22 05:44:00,
2013-01-22 00:49:00,60.3,55.8,30.08,WNW,302,1.0,2.0,85,0.00,,SKC,0.00,VWS V14.01,2013-01-22 05:49:00,
2013-01-22 00:54:00,60.3,55.8,30.07,WNW,302,4.0,4.0,85,0.00,,SKC,0.00,VWS V14.01,2013-01-22 05:54:00,
2013-01-22 00:59:00,60.2,55.3,30.08,WNW,290,1.0,5.0,84,0.00,,SKC,0.00,VWS V14.01,2013-01-22 05:59:00,
2013-01-22 01:04:00,60.0,55.2,30.08,North,350,1.0,6.0,84,0.00,,SKC,0.00,VWS V14.01,2013-01-22 06:04:00,
2013-01-22 01:09:00,59.8,55.0,30.08,NNW,329,1.0,4.0,84,0.00,,SKC,0.00,VWS V14.01,2013-01-22 06:09:00,
2013-01-22 01:14:00,59.6,54.8,30.07,NW,319,2.0,6.0,84,0.00,,SKC,0.00,VWS V14.01,2013-01-22 06:14:00,
2013-01-22 01:19:00,59.5,55.0,30.07,NW,314,1.0,4.0,85,0.00,,SKC,0.00,VWS V14.01,2013-01-22 06:19:00,
2013-01-22 01:24:00,59.4,54.9,30.07,NW,324,1.0,5.0,85,0.00,,SKC,0.00,VWS V14.01,2013-01-22 06:24:00,
2013-01-22 01:29:00,59.3,54.8,30.07,NW,317,2.0,5.0,85,0.00,,SKC,0.00,VWS V14.01,2013-01-22 06:29:00,
2013-01-22 01:34:00,59.2,54.4,30.07,North,360,2.0,5.0,84,0.00,,SKC,0.00,VWS V14.01,2013-01-22 06:34:00,
2013-01-22 01:39:00,59.1,54.3,30.07,North,350,2.0,4.0,84,0.00,,SKC,0.00,VWS V14.01,2013-01-22 06:39:00,
2013-01-22 01:44:00,59.0,54.2,30.07,NW,321,2.0,4.0,84,0.00,,SKC,0.00,VWS V14.01,2013-01-22 06:44:00,
2013-01-22 01:49:00,58.9,54.1,30.07,NNW,338,3.0,5.0,84,0.00,,SKC,0.00,VWS V14.01,2013-01-22 06:49:00,
2013-01-22 01:54:00,58.9,54.1,30.07,NNW,337,3.0,5.0,84,0.00,,SKC,0.00,VWS V14.01,2013-01-22 06:54:00,
2013-01-22 01:59:00,58.7,53.9,30.07,NW,322,2.0,5.0,84,0.00,,SKC,0.00,VWS V14.01,2013-01-22 06:59:00,
2013-01-22 02:04:00,58.7,53.9,30.07,NNW,340,2.0,5.0,84,0.00,,SKC,0.00,VWS V14.01,2013-01-22 07:04:00,
2013-01-22 02:09:00,58.6,53.8,30.07,NNW,329,3.0,4.0,84,0.00,,SKC,0.00,VWS V14.01,2013-01-22 07:09:00,
2013-01-22 02:14:00,58.6,53.8,30.06,NNW,329,4.0,5.0,84,0.00,,SKC,0.00,VWS V14.01,2013-01-22 07:14:00,
2013-01-22 02:19:00,58.6,53.5,30.06,North,360,3.0,7.0,83,0.00,,SKC,0.00,VWS V14.01,2013-01-22 07:19:00,
2013-01-22 02:24:00,58.6,53.1,30.06,North,360,3.0,7.0,82,0.00,,SKC,0.00,VWS V14.01,2013-01-22 07:24:00,
2013-01-22 02:29:00,58.6,53.1,30.06,NNW,345,4.0,8.0,82,0.00,,SKC,0.00,VWS V14.01,2013-01-22 07:29:00,
2013-01-22 02:34:00,58.6,53.1,30.06,North,355,4.0,5.0,82,0.00,,SKC,0.00,VWS V14.01,2013-01-22 07:34:00,
2013-01-22 02:39:00,58.6,52.8,30.06,North,360,3.0,7.0,81,0.00,,SKC,0.00,VWS V14.01,2013-01-22 07:39:00,
2013-01-22 02:44:00,58.6,52.8,30.06,North,355,4.0,6.0,81,0.00,,SKC,0.00,VWS V14.01,2013-01-22 07:44:00,
2013-01-22 02:49:00,58.5,52.7,30.06,North,355,4.0,8.0,81,0.00,,SKC,0.00,VWS V14.01,2013-01-22 07:49:00,
2013-01-22 02:54:00,58.6,52.5,30.07,NNE,13,2.0,6.0,80,0.00,,SKC,0.00,VWS V14.01,2013-01-22 07:54:00,
2013-01-22 02:59:00,58.6,52.1,30.06,North,351,1.0,5.0,79,0.00,,SKC,0.00,VWS V14.01,2013-01-22 07:59:00,
2013-01-22 03:04:00,58.6,51.8,30.06,NNE,13,2.0,7.0,78,0.00,,SKC,0.00,VWS V14.01,2013-01-22 08:04:00,
2013-01-22 03:09:00,58.5,51.7,30.06,North,11,3.0,5.0,78,0.00,,SKC,0.00,VWS V14.01,2013-01-22 08:09:00,
2013-01-22 03:14:00,58.5,51.3,30.06,North,5,4.0,7.0,77,0.00,,SKC,0.00,VWS V14.01,2013-01-22 08:14:00,
2013-01-22 03:19:00,58.4,50.9,30.06,North,11,6.0,6.0,76,0.00,,SKC,0.00,VWS V14.01,2013-01-22 08:19:00,
2013-01-22 03:25:00,58.4,50.9,30.06,North,5,1.0,6.0,76,0.00,,SKC,0.00,VWS V14.01,2013-01-22 08:25:00,
2013-01-22 03:30:00,58.3,50.8,30.06,NNE,16,0.0,4.0,76,0.00,,SKC,0.00,VWS V14.01,2013-01-22 08:30:00,
2013-01-22 03:35:00,58.2,50.7,30.06,North,360,0.0,4.0,76,0.00,,SKC,0.00,VWS V14.01,2013-01-22 08:35:00,
2013-01-22 03:40:00,58.1,50.6,30.06,North,355,0.0,4.0,76,0.00,,SKC,0.00,VWS V14.01,2013-01-22 08:40:00,
2013-01-22 03:45:00,58.0,50.1,30.07,North,355,0.0,3.0,75,0.00,,SKC,0.00,VWS V14.01,2013-01-22 08:45:00,
2013-01-22 03:50:00,58.0,50.5,30.06,North,355,1.0,2.0,76,0.00,,SKC,0.00,VWS V14.01,2013-01-22 08:50:00,
2013-01-22 03:55:00,57.8,50.3,30.06,North,360,2.0,4.0,76,0.00,,SKC,0.00,VWS V14.01,2013-01-22 08:55:00,
2013-01-22 04:00:00,57.6,50.1,30.06,North,360,2.0,2.0,76,0.00,,SKC,0.00,VWS V14.01,2013-01-22 09:00:00,
2013-01-22 04:05:00,57.4,50.3,30.06,North,360,2.0,3.0,77,0.00,,SKC,0.00,VWS V14.01,2013-01-22 09:05:00,
2013-01-22 04:10:00,57.1,50.0,30.06,North,360,2.0,4.0,77,0.00,,SKC,0.00,VWS V14.01,2013-01-22 09:10:00,
2013-01-22 04:15:00,57.0,49.9,30.06,North,360,2.0,3.0,77,0.00,,SKC,0.00,VWS V14.01,2013-01-22 09:15:00,
2013-01-22 04:20:00,56.8,49.7,30.06,North,5,3.0,5.0,77,0.00,,SKC,0.00,VWS V14.01,2013-01-22 09:20:00,
2013-01-22 04:25:00,56.8,50.0,30.06,North,5,2.0,3.0,78,0.00,,SKC,0.00,VWS V14.01,2013-01-22 09:25:00,
2013-01-22 04:30:00,56.7,49.6,30.06,NNE,15,1.0,4.0,77,0.00,,SKC,0.00,VWS V14.01,2013-01-22 09:30:00,
2013-01-22 04:35:00,56.6,49.5,30.06,NNE,15,1.0,3.0,77,0.00,,SKC,0.00,VWS V14.01,2013-01-22 09:35:00,
2013-01-22 04:40:00,56.5,49.4,30.06,NNE,15,1.0,3.0,77,0.00,,SKC,0.00,VWS V14.01,2013-01-22 09:40:00,
2013-01-22 04:45:00,56.5,49.4,30.06,NNE,15,2.0,2.0,77,0.00,,SKC,0.00,VWS V14.01,2013-01-22 09:45:00,
2013-01-22 04:50:00,56.4,48.9,30.06,North,360,1.0,4.0,76,0.00,,SKC,0.00,VWS V14.01,2013-01-22 09:50:00,
2013-01-22 04:55:00,56.4,48.9,30.06,North,360,1.0,3.0,76,0.00,,SKC,0.00,VWS V14.01,2013-01-22 09:55:00,
2013-01-22 05:00:00,56.4,48.9,30.07,North,360,1.0,2.0,76,0.00,,SKC,0.00,VWS V14.01,2013-01-22 10:00:00,
2013-01-22 05:05:00,56.4,48.6,30.06,North,360,1.0,2.0,75,0.00,,SKC,0.00,VWS V14.01,2013-01-22 10:05:00,
2013-01-22 05:10:00,56.3,48.5,30.07,North,360,1.0,3.0,75,0.00,,SKC,0.00,VWS V14.01,2013-01-22 10:10:00,
2013-01-22 05:15:00,56.3,48.1,30.07,North,360,0.0,2.0,74,0.00,,SKC,0.00,VWS V14.01,2013-01-22 10:15:00,
2013-01-22 05:20:00,56.2,48.0,30.07,North,360,0.0,2.0,74,0.00,,SKC,0.00,VWS V14.01,2013-01-22 10:20:00,
2013-01-22 05:25:00,56.0,47.8,30.07,North,360,2.0,4.0,74,0.00,,SKC,0.00,VWS V14.01,2013-01-22 10:25:00,
2013-01-22 05:30:00,56.0,47.8,30.07,North,360,1.0,3.0,74,0.00,,SKC,0.00,VWS V14.01,2013-01-22 10:30:00,
2013-01-22 05:35:00,55.9,47.7,30.07,North,360,1.0,4.0,74,0.00,,SKC,0.00,VWS V14.01,2013-01-22 10:35:00,
2013-01-22 05:40:00,55.8,47.7,30.07,North,360,1.0,2.0,74,0.00,,SKC,0.00,VWS V14.01,2013-01-22 10:40:00,
2013-01-22 05:45:00,55.7,47.2,30.08,North,360,1.0,3.0,73,0.00,,SKC,0.00,VWS V14.01,2013-01-22 10:45:00,
2013-01-22 05:50:00,55.6,47.1,30.08,North,360,1.0,3.0,73,0.00,,SKC,0.00,VWS V14.01,2013-01-22 10:50:00,
2013-01-22 05:55:00,55.5,47.0,30.08,North,360,1.0,3.0,73,0.00,,SKC,0.00,VWS V14.01,2013-01-22 10:55:00,
2013-01-22 06:00:00,55.4,46.5,30.08,North,355,0.0,3.0,72,0.00,,SKC,0.00,VWS V14.01,2013-01-22 11:00:00,
2013-01-22 06:05:00,55.3,46.4,30.09,North,355,1.0,3.0,72,0.00,,SKC,0.00,VWS V14.01,2013-01-22 11:05:00,
2013-01-22 06:10:00,55.3,46.8,30.09,North,355,0.0,2.0,73,0.00,,SKC,0.00,VWS V14.01,2013-01-22 11:10:00,
2013-01-22 06:15:00,55.1,46.6,30.10,North,355,1.0,4.0,73,0.00,,SKC,0.00,VWS V14.01,2013-01-22 11:15:00,
2013-01-22 06:20:00,55.0,46.5,30.09,North,355,0.0,2.0,73,0.00,,SKC,0.00,VWS V14.01,2013-01-22 11:20:00,
2013-01-22 06:25:00,54.9,46.4,30.09,North,355,0.0,3.0,73,0.00,,SKC,0.00,VWS V14.01,2013-01-22 11:25:00,
2013-01-22 06:30:00,54.8,46.3,30.09,North,355,0.0,4.0,73,0.00,,SKC,0.00,VWS V14.01,2013-01-22 11:30:00,
2013-01-22 06:35:00,54.7,46.6,30.09,North,355,0.0,1.0,74,0.00,,SKC,0.00,VWS V14.01,2013-01-22 11:35:00,
2013-01-22 06:40:00,54.6,46.5,30.10,North,355,0.0,2.0,74,0.00,,SKC,0.00,VWS V14.01,2013-01-22 11:40:00,
2013-01-22 06:45:00,54.6,46.8,30.11,North,355,0.0,2.0,75,0.00,,SKC,0.00,VWS V14.01,2013-01-22 11:45:00,
2013-01-22 06:50:00,54.6,47.2,30.11,North,355,0.0,2.0,76,0.00,,SKC,0.00,VWS V14.01,2013-01-22 11:50:00,
2013-01-22 06:55:00,54.6,47.5,30.12,WNW,292,1.0,4.0,77,0.00,,SKC,0.00,VWS V14.01,2013-01-22 11:55:00,
2013-01-22 07:00:00,54.6,47.5,30.12,WNW,302,1.0,3.0,77,0.00,,SKC,0.00,VWS V14.01,2013-01-22 12:00:00,
2013-01-22 07:05:00,54.6,47.5,30.12,NW,317,0.0,3.0,77,0.00,,SKC,0.00,VWS V14.01,2013-01-22 12:05:00,
2013-01-22 07:10:00,54.7,47.6,30.13,NW,317,2.0,3.0,77,0.00,,SKC,0.00,VWS V14.01,2013-01-22 12:10:00,
2013-01-22 07:15:00,54.7,47.6,30.13,NW,326,0.0,4.0,77,0.00,,SKC,0.00,VWS V14.01,2013-01-22 12:15:00,
2013-01-22 07:20:00,54.6,47.5,30.13,NNW,343,1.0,3.0,77,0.00,,SKC,0.00,VWS V14.01,2013-01-22 12:20:00,
2013-01-22 07:25:00,54.4,47.7,30.13,NNW,343,1.0,3.0,78,0.00,,SKC,0.00,VWS V14.01,2013-01-22 12:25:00,
2013-01-22 07:30:00,54.2,47.5,30.13,NNW,343,0.0,3.0,78,0.00,,SKC,0.00,VWS V14.01,2013-01-22 12:30:00,
2013-01-22 07:35:00,54.1,47.4,30.14,NNW,343,0.0,3.0,78,0.00,,SKC,0.00,VWS V14.01,2013-01-22 12:35:00,
2013-01-22 07:40:00,53.9,47.2,30.14,NNW,344,2.0,3.0,78,0.00,,SKC,0.00,VWS V14.01,2013-01-22 12:40:00,
2013-01-22 07:45:00,53.8,47.1,30.14,North,5,2.0,4.0,78,0.00,,SKC,0.00,VWS V14.01,2013-01-22 12:45:00,
2013-01-22 07:50:00,53.8,46.8,30.13,North,5,1.0,5.0,77,0.00,,SKC,0.00,VWS V14.01,2013-01-22 12:50:00,
2013-01-22 07:55:00,53.7,47.0,30.14,NNW,347,2.0,4.0,78,0.00,,SKC,0.00,VWS V14.01,2013-01-22 12:55:00,
2013-01-22 08:00:00,53.7,47.0,30.15,NNW,334,2.0,4.0,78,0.00,,SKC,0.00,VWS V14.01,2013-01-22 13:00:00,
2013-01-22 08:05:00,53.7,47.0,30.15,NW,325,2.0,7.0,78,0.00,,SKC,0.00,VWS V14.01,2013-01-22 13:05:00,
2013-01-22 08:10:00,53.7,47.0,30.15,North,355,1.0,4.0,78,0.00,,SKC,0.00,VWS V14.01,2013-01-22 13:10:00,
2013-01-22 08:15:00,53.6,47.3,30.15,NNW,343,2.0,6.0,79,0.00,,SKC,0.00,VWS V14.01,2013-01-22 13:15:00,
2013-01-22 08:20:00,53.6,47.3,30.15,North,351,2.0,6.0,79,0.00,,SKC,0.00,VWS V14.01,2013-01-22 13:20:00,
2013-01-22 08:25:00,53.8,46.8,30.15,NNW,330,3.0,6.0,77,0.00,,SKC,0.00,VWS V14.01,2013-01-22 13:25:00,
2013-01-22 08:30:00,54.0,46.6,30.16,North,5,1.0,6.0,76,0.00,,SKC,0.00,VWS V14.01,2013-01-22 13:30:00,
2013-01-22 08:35:00,54.3,46.9,30.16,North,349,1.0,4.0,76,0.00,,SKC,0.00,VWS V14.01,2013-01-22 13:35:00,
2013-01-22 08:40:00,54.6,46.8,30.16,NNE,12,3.0,6.0,75,0.00,,SKC,0.00,VWS V14.01,2013-01-22 13:40:00,
2013-01-22 08:45:00,54.9,46.8,30.17,North,355,3.0,6.0,74,0.00,,SKC,0.00,VWS V14.01,2013-01-22 13:45:00,
2013-01-22 08:50:00,55.1,46.6,30.17,North,360,3.0,7.0,73,0.00,,SKC,0.00,VWS V14.01,2013-01-22 13:50:00,
2013-01-22 08:55:00,55.3,46.8,30.17,North,360,2.0,7.0,73,0.00,,SKC,0.00,VWS V14.01,2013-01-22 13:55:00,
2013-01-22 09:00:00,55.5,46.6,30.17,North,11,4.0,7.0,72,0.00,,SKC,0.00,VWS V14.01,2013-01-22 14:00:00,
2013-01-22 09:05:00,55.7,46.5,30.17,North,5,6.0,11.0,71,0.00,,SKC,0.00,VWS V14.01,2013-01-22 14:05:00,
2013-01-22 09:10:00,56.2,46.2,30.18,NNE,17,4.0,11.0,69,0.00,,SKC,0.00,VWS V14.01,2013-01-22 14:10:00,
2013-01-22 09:15:00,56.6,45.8,30.18,North,360,5.0,10.0,67,0.00,,SKC,0.00,VWS V14.01,2013-01-22 14:15:00,
2013-01-22 09:20:00,57.0,46.2,30.19,NNW,332,5.0,11.0,67,0.00,,SKC,0.00,VWS V14.01,2013-01-22 14:20:00,
2013-01-22 09:25:00,57.5,45.8,30.19,North,5,9.0,9.0,65,0.00,,SKC,0.00,VWS V14.01,2013-01-22 14:25:00,
2013-01-22 09:30:00,57.7,46.0,30.19,North,5,10.0,11.0,65,0.00,,SKC,0.00,VWS V14.01,2013-01-22 14:30:00,
2013-01-22 09:35:00,57.9,45.4,30.20,NNE,23,7.0,15.0,63,0.00,,SKC,0.00,VWS V14.01,2013-01-22 14:35:00,
2013-01-22 09:40:00,58.1,45.6,30.20,North,360,7.0,16.0,63,0.00,,SKC,0.00,VWS V14.01,2013-01-22 14:40:00,
2013-01-22 09:45:00,58.5,45.1,30.20,NNE,15,10.0,15.0,61,0.00,,SKC,0.00,VWS V14.01,2013-01-22 14:45:00,
2013-01-22 09:50:00,58.6,44.8,30.21,NNE,27,11.0,19.0,60,0.00,,SKC,0.00,VWS V14.01,2013-01-22 14:50:00,
2013-01-22 09:55:00,59.4,45.5,30.21,NNE,21,13.0,13.0,60,0.00,,SKC,0.00,VWS V14.01,2013-01-22 14:55:00,
2013-01-22 10:00:00,59.5,44.7,30.21,NNE,13,14.0,16.0,58,0.00,,SKC,0.00,VWS V14.01,2013-01-22 15:00:00,
2013-01-22 10:05:00,59.4,44.6,30.21,NNE,24,10.0,16.0,58,0.00,,SKC,0.00,VWS V14.01,2013-01-22 15:05:00,
2013-01-22 10:10:00,59.5,44.7,30.21,NNE,26,9.0,16.0,58,0.00,,SKC,0.00,VWS V14.01,2013-01-22 15:10:00,
2013-01-22 10:15:00,59.6,43.9,30.21,North,11,9.0,17.0,56,0.00,,SKC,0.00,VWS V14.01,2013-01-22 15:15:00,
2013-01-22 10:20:00,59.5,43.8,30.22,North,360,5.0,17.0,56,0.00,,SKC,0.00,VWS V14.01,2013-01-22 15:20:00,
2013-01-22 10:25:00,59.6,43.9,30.21,North,10,11.0,16.0,56,0.00,,SKC,0.00,VWS V14.01,2013-01-22 15:25:00,
2013-01-22 10:30:00,59.9,43.7,30.21,North,360,7.0,14.0,55,0.00,,SKC,0.00,VWS V14.01,2013-01-22 15:30:00,
2013-01-22 10:35:00,60.0,43.8,30.21,NNE,16,5.0,18.0,55,0.00,,SKC,0.00,VWS V14.01,2013-01-22 15:35:00,
2013-01-22 10:40:00,59.9,43.7,30.21,North,355,12.0,16.0,55,0.00,,SKC,0.00,VWS V14.01,2013-01-22 15:40:00,
2013-01-22 10:45:00,59.9,43.7,30.21,North,360,9.0,17.0,55,0.00,,SKC,0.00,VWS V14.01,2013-01-22 15:45:00,
2013-01-22 10:50:00,60.0,43.3,30.22,NE,41,9.0,13.0,54,0.00,,SKC,0.00,VWS V14.01,2013-01-22 15:50:00,
2013-01-22 10:55:00,60.3,44.1,30.22,North,5,4.0,14.0,55,0.00,,SKC,0.00,VWS V14.01,2013-01-22 15:55:00,
2013-01-22 11:00:00,60.5,43.8,30.22,NE,37,8.0,10.0,54,0.00,,SKC,0.00,VWS V14.01,2013-01-22 16:00:00,
2013-01-22 11:05:00,60.6,44.4,30.22,NNE,19,4.0,9.0,55,0.00,,SKC,0.00,VWS V14.01,2013-01-22 16:05:00,
2013-01-22 11:10:00,60.6,43.4,30.22,NNE,13,9.0,10.0,53,0.00,,SKC,0.00,VWS V14.01,2013-01-22 16:10:00,
2013-01-22 11:15:00,60.7,43.0,30.22,North,5,9.0,12.0,52,0.00,,SKC,0.00,VWS V14.01,2013-01-22 16:15:00,
2013-01-22 11:20:00,60.9,43.7,30.22,North,9,7.0,11.0,53,0.00,,SKC,0.00,VWS V14.01,2013-01-22 16:20:00,
2013-01-22 11:25:00,61.2,42.4,30.22,NE,38,3.0,10.0,50,0.00,,SKC,0.00,VWS V14.01,2013-01-22 16:25:00,
2013-01-22 11:30:00,61.4,41.6,30.22,NNE,16,8.0,12.0,48,0.00,,SKC,0.00,VWS V14.01,2013-01-22 16:30:00,
2013-01-22 11:35:00,61.5,41.1,30.22,NNE,31,6.0,12.0,47,0.00,,SKC,0.00,VWS V14.01,2013-01-22 16:35:00,
2013-01-22 11:40:00,61.8,41.4,30.22,North,355,4.0,10.0,47,0.00,,SKC,0.00,VWS V14.01,2013-01-22 16:40:00,
2013-01-22 11:45:00,62.3,41.3,30.21,NNE,25,2.0,10.0,46,0.00,,SKC,0.00,VWS V14.01,2013-01-22 16:45:00,
2013-01-22 11:50:00,62.5,40.3,30.21,NNW,340,3.0,11.0,44,0.00,,SKC,0.00,VWS V14.01,2013-01-22 16:50:00,
2013-01-22 11:55:00,62.6,40.4,30.21,North,360,6.0,11.0,44,0.00,,SKC,0.00,VWS V14.01,2013-01-22 16:55:00,
2013-01-22 12:00:00,62.7,39.3,30.21,NNE,18,7.0,12.0,42,0.00,,SKC,0.00,VWS V14.01,2013-01-22 17:00:00,
2013-01-22 12:05:00,63.0,37.7,30.21,NNE,12,6.0,13.0,39,0.00,,SKC,0.00,VWS V14.01,2013-01-22 17:05:00,
2013-01-22 12:10:00,63.2,37.9,30.21,NE,34,7.0,15.0,39,0.00,,SKC,0.00,VWS V14.01,2013-01-22 17:10:00,
2013-01-22 12:15:00,63.4,36.7,30.20,NE,35,9.0,11.0,37,0.00,,SKC,0.00,VWS V14.01,2013-01-22 17:15:00,
2013-01-22 12:20:00,63.5,35.4,30.20,NE,39,10.0,17.0,35,0.00,,SKC,0.00,VWS V14.01,2013-01-22 17:20:00,
2013-01-22 12:25:00,63.4,35.3,30.20,NNE,18,11.0,16.0,35,0.00,,SKC,0.00,VWS V14.01,2013-01-22 17:25:00,
2013-01-22 12:30:00,63.4,36.0,30.20,NNE,22,3.0,13.0,36,0.00,,SKC,0.00,VWS V14.01,2013-01-22 17:30:00,
2013-01-22 12:35:00,63.6,34.7,30.20,NNE,12,6.0,16.0,34,0.00,,SKC,0.00,VWS V14.01,2013-01-22 17:35:00,
2013-01-22 12:40:00,64.0,35.1,30.20,NNE,28,9.0,14.0,34,0.00,,SKC,0.00,VWS V14.01,2013-01-22 17:40:00,
2013-01-22 12:45:00,64.4,36.2,30.19,NNE,21,7.0,12.0,35,0.00,,SKC,0.00,VWS V14.01,2013-01-22 17:45:00,
2013-01-22 12:50:00,64.2,34.5,30.19,North,360,4.0,18.0,33,0.00,,SKC,0.00,VWS V14.01,2013-01-22 17:50:00,
2013-01-22 12:55:00,64.3,36.1,30.19,North,355,8.0,14.0,35,0.00,,SKC,0.00,VWS V14.01,2013-01-22 17:55:00,
2013-01-22 13:00:00,64.3,35.4,30.19,NE,36,12.0,14.0,34,0.00,,SKC,0.00,VWS V14.01,2013-01-22 18:00:00,
2013-01-22 13:05:00,64.3,34.6,30.19,NNE,27,11.0,14.0,33,0.00,,SKC,0.00,VWS V14.01,2013-01-22 18:05:00,
2013-01-22 13:10:00,64.2,34.5,30.18,NNE,17,9.0,13.0,33,0.00,,SKC,0.00,VWS V14.01,2013-01-22 18:10:00,
2013-01-22 13:15:00,64.2,36.7,30.18,North,360,12.0,15.0,36,0.00,,SKC,0.00,VWS V14.01,2013-01-22 18:15:00,
2013-01-22 13:20:00,63.8,34.9,30.18,NNW,348,7.0,15.0,34,0.00,,SKC,0.00,VWS V14.01,2013-01-22 18:20:00,
2013-01-22 13:25:00,63.7,36.3,30.18,NNE,19,8.0,14.0,36,0.00,,SKC,0.00,VWS V14.01,2013-01-22 18:25:00,
2013-01-22 13:30:00,63.9,37.1,30.18,ENE,71,10.0,11.0,37,0.00,,SKC,0.00,VWS V14.01,2013-01-22 18:30:00,
2013-01-22 13:35:00,63.8,39.7,30.18,NNE,17,4.0,12.0,41,0.00,,SKC,0.00,VWS V14.01,2013-01-22 18:35:00,
2013-01-22 13:40:00,63.6,39.5,30.18,North,355,4.0,12.0,41,0.00,,SKC,0.00,VWS V14.01,2013-01-22 18:40:00,
2013-01-22 13:45:00,63.6,38.9,30.18,North,5,12.0,13.0,40,0.00,,SKC,0.00,VWS V14.01,2013-01-22 18:45:00,
2013-01-22 13:50:00,63.2,39.1,30.18,North,5,3.0,14.0,41,0.00,,SKC,0.00,VWS V14.01,2013-01-22 18:50:00,
2013-01-22 13:55:00,63.1,39.7,30.17,NE,34,11.0,14.0,42,0.00,,SKC,0.00,VWS V14.01,2013-01-22 18:55:00,
2013-01-22 14:00:00,63.2,39.1,30.18,North,11,10.0,12.0,41,0.00,,SKC,0.00,VWS V14.01,2013-01-22 19:00:00,
2013-01-22 14:05:00,62.9,40.1,30.18,North,360,6.0,12.0,43,0.00,,SKC,0.00,VWS V14.01,2013-01-22 19:05:00,
2013-01-22 14:10:00,62.8,40.0,30.17,NNE,24,11.0,12.0,43,0.00,,SKC,0.00,VWS V14.01,2013-01-22 19:10:00,
2013-01-22 14:15:00,62.7,40.5,30.17,North,5,8.0,12.0,44,0.00,,SKC,0.00,VWS V14.01,2013-01-22 19:15:00,
2013-01-22 14:20:00,62.5,39.7,30.17,North,355,8.0,11.0,43,0.00,,SKC,0.00,VWS V14.01,2013-01-22 19:20:00,
2013-01-22 14:25:00,62.5,39.7,30.17,NNE,18,3.0,13.0,43,0.00,,SKC,0.00,VWS V14.01,2013-01-22 19:25:00,
2013-01-22 14:30:00,62.5,39.7,30.17,North,5,4.0,12.0,43,0.00,,SKC,0.00,VWS V14.01,2013-01-22 19:30:00,
2013-01-22 14:35:00,62.6,39.8,30.17,North,360,8.0,11.0,43,0.00,,SKC,0.00,VWS V14.01,2013-01-22 19:35:00,
2013-01-22 14:40:00,62.8,39.4,30.17,NNE,22,11.0,11.0,42,0.00,,SKC,0.00,VWS V14.01,2013-01-22 19:40:00,
2013-01-22 14:45:00,62.7,38.7,30.17,North,9,3.0,15.0,41,0.00,,SKC,0.00,VWS V14.01,2013-01-22 19:45:00,
2013-01-22 14:50:00,62.8,39.4,30.17,NE,46,8.0,12.0,42,0.00,,SKC,0.00,VWS V14.01,2013-01-22 19:50:00,
2013-01-22 14:55:00,62.7,38.7,30.17,NNE,24,12.0,15.0,41,0.00,,SKC,0.00,VWS V14.01,2013-01-22 19:55:00,
2013-01-22 15:00:00,62.7,39.9,30.17,NNE,24,7.0,11.0,43,0.00,,SKC,0.00,VWS V14.01,2013-01-22 20:00:00,
2013-01-22 15:05:00,62.6,39.2,30.18,NNW,345,4.0,11.0,42,0.00,,SKC,0.00,VWS V14.01,2013-01-22 20:05:00,
2013-01-22 15:10:00,62.5,39.7,30.18,NNE,19,7.0,9.0,43,0.00,,SKC,0.00,VWS V14.01,2013-01-22 20:10:00,
2013-01-22 15:15:00,62.5,40.3,30.18,NNE,22,6.0,11.0,44,0.00,,SKC,0.00,VWS V14.01,2013-01-22 20:15:00,
2013-01-22 15:20:00,62.4,40.2,30.18,NNE,24,7.0,14.0,44,0.00,,SKC,0.00,VWS V14.01,2013-01-22 20:20:00,
2013-01-22 15:25:00,62.3,39.5,30.18,North,5,6.0,11.0,43,0.00,,SKC,0.00,VWS V14.01,2013-01-22 20:25:00,
2013-01-22 15:30:00,62.1,40.0,30.18,NNW,328,7.0,11.0,44,0.00,,SKC,0.00,VWS V14.01,2013-01-22 20:30:00,
2013-01-22 15:35:00,62.0,39.9,30.18,NNW,338,3.0,13.0,44,0.00,,SKC,0.00,VWS V14.01,2013-01-22 20:35:00,
2013-01-22 15:40:00,62.1,40.5,30.18,NNE,26,7.0,10.0,45,0.00,,SKC,0.00,VWS V14.01,2013-01-22 20:40:00,
2013-01-22 15:45:00,61.9,39.8,30.18,North,360,4.0,10.0,44,0.00,,SKC,0.00,VWS V14.01,2013-01-22 20:45:00,
2013-01-22 15:50:00,61.8,40.3,30.18,North,355,6.0,9.0,45,0.00,,SKC,0.00,VWS V14.01,2013-01-22 20:50:00,
2013-01-22 15:55:00,61.7,40.2,30.18,North,360,6.0,15.0,45,0.00,,SKC,0.00,VWS V14.01,2013-01-22 20:55:00,
2013-01-22 16:00:00,61.6,40.1,30.19,NNE,13,4.0,10.0,45,0.00,,SKC,0.00,VWS V14.01,2013-01-22 21:00:00,
2013-01-22 16:05:00,61.5,40.0,30.19,NNE,25,8.0,14.0,45,0.00,,SKC,0.00,VWS V14.01,2013-01-22 21:05:00,
2013-01-22 16:10:00,61.4,40.5,30.20,NNW,336,8.0,11.0,46,0.00,,SKC,0.00,VWS V14.01,2013-01-22 21:10:00,
2013-01-22 16:15:00,61.3,40.4,30.20,North,350,12.0,14.0,46,0.00,,SKC,0.00,VWS V14.01,2013-01-22 21:15:00,
2013-01-22 16:20:00,61.1,40.2,30.20,North,355,4.0,14.0,46,0.00,,SKC,0.00,VWS V14.01,2013-01-22 21:20:00,
2013-01-22 16:25:00,61.1,40.7,30.20,NNW,331,3.0,11.0,47,0.00,,SKC,0.00,VWS V14.01,2013-01-22 21:25:00,
2013-01-22 16:30:00,61.0,40.7,30.20,NNW,345,7.0,11.0,47,0.00,,SKC,0.00,VWS V14.01,2013-01-22 21:30:00,
2013-01-22 16:35:00,61.0,40.7,30.20,North,355,6.0,10.0,47,0.00,,SKC,0.00,VWS V14.01,2013-01-22 21:35:00,
2013-01-22 16:40:00,60.9,41.1,30.21,NNW,346,4.0,9.0,48,0.00,,SKC,0.00,VWS V14.01,2013-01-22 21:40:00,
2013-01-22 16:45:00,60.8,41.0,30.21,NNW,347,2.0,13.0,48,0.00,,SKC,0.00,VWS V14.01,2013-01-22 21:45:00,
2013-01-22 16:50:00,60.7,40.9,30.21,NNE,19,5.0,12.0,48,0.00,,SKC,0.00,VWS V14.01,2013-01-22 21:50:00,
2013-01-22 16:55:00,60.7,41.5,30.21,NNE,14,3.0,9.0,49,0.00,,SKC,0.00,VWS V14.01,2013-01-22 21:55:00,
2013-01-22 17:00:00,60.6,41.4,30.21,North,10,6.0,9.0,49,0.00,,SKC,0.00,VWS V14.01,2013-01-22 22:00:00,
2013-01-22 17:05:00,60.5,41.8,30.21,NNE,22,6.0,9.0,50,0.00,,SKC,0.00,VWS V14.01,2013-01-22 22:05:00,
2013-01-22 17:06:00,60.5,41.8,30.21,North,355,5.0,8.0,50,0.00,,SKC,0.00,VWS V14.01,2013-01-22 22:06:00,
2013-01-22 17:11:00,60.5,41.8,30.21,NNE,15,5.0,7.0,50,0.00,,SKC,0.00,VWS V14.01,2013-01-22 22:11:00,
2013-01-22 17:16:00,60.4,41.7,30.21,North,9,3.0,7.0,50,0.00,,SKC,0.00,VWS V14.01,2013-01-22 22:16:00,
2013-01-22 17:21:00,60.3,41.6,30.21,NNE,12,5.0,7.0,50,0.00,,SKC,0.00,VWS V14.01,2013-01-22 22:21:00,
2013-01-22 17:26:00,60.1,42.4,30.21,North,11,7.0,7.0,52,0.00,,SKC,0.00,VWS V14.01,2013-01-22 22:26:00,
2013-01-22 17:31:00,59.9,41.8,30.22,NE,38,5.0,7.0,51,0.00,,SKC,0.00,VWS V14.01,2013-01-22 22:31:00,
2013-01-22 17:36:00,59.8,41.7,30.22,NNE,28,6.0,7.0,51,0.00,,SKC,0.00,VWS V14.01,2013-01-22 22:36:00,
2013-01-22 17:41:00,59.7,41.6,30.22,NNE,22,3.0,7.0,51,0.00,,SKC,0.00,VWS V14.01,2013-01-22 22:41:00,
2013-01-22 17:46:00,59.4,41.8,30.22,North,11,2.0,4.0,52,0.00,,SKC,0.00,VWS V14.01,2013-01-22 22:46:00,
2013-01-22 17:51:00,59.1,41.0,30.22,NNE,28,4.0,7.0,51,0.00,,SKC,0.00,VWS V14.01,2013-01-22 22:51:00,
2013-01-22 17:56:00,58.9,41.3,30.23,NNE,23,2.0,3.0,52,0.00,,SKC,0.00,VWS V14.01,2013-01-22 22:56:00,
2013-01-22 18:01:00,58.7,41.1,30.22,NNE,16,3.0,5.0,52,0.00,,SKC,0.00,VWS V14.01,2013-01-22 23:01:00,
2013-01-22 18:06:00,58.4,41.3,30.23,NNE,13,2.0,3.0,53,0.00,,SKC,0.00,VWS V14.01,2013-01-22 23:06:00,
2013-01-22 18:11:00,58.2,41.7,30.23,North,360,2.0,2.0,54,0.00,,SKC,0.00,VWS V14.01,2013-01-22 23:11:00,
2013-01-22 18:16:00,57.9,41.4,30.23,North,9,2.0,4.0,54,0.00,,SKC,0.00,VWS V14.01,2013-01-22 23:16:00,
2013-01-22 18:21:00,57.7,41.7,30.23,NNE,22,1.0,2.0,55,0.00,,SKC,0.00,VWS V14.01,2013-01-22 23:21:00,
2013-01-22 18:26:00,57.5,41.5,30.23,NNE,20,2.0,4.0,55,0.00,,SKC,0.00,VWS V14.01,2013-01-22 23:26:00,
2013-01-22 18:31:00,57.2,41.2,30.23,NNE,25,3.0,3.0,55,0.00,,SKC,0.00,VWS V14.01,2013-01-22 23:31:00,
2013-01-22 18:37:00,56.9,40.9,30.23,NNE,17,3.0,4.0,55,0.00,,SKC,0.00,VWS V14.01,2013-01-22 23:37:00,
2013-01-22 18:42:00,56.7,41.2,30.23,North,9,3.0,4.0,56,0.00,,SKC,0.00,VWS V14.01,2013-01-22 23:42:00,
2013-01-22 18:47:00,56.5,41.0,30.23,North,5,2.0,4.0,56,0.00,,SKC,0.00,VWS V14.01,2013-01-22 23:47:00,
2013-01-22 18:51:00,56.2,40.7,30.23,North,11,3.0,4.0,56,0.00,,SKC,0.00,VWS V14.01,2013-01-22 23:51:00,
2013-01-22 18:56:00,56.1,40.6,30.23,North,11,4.0,5.0,56,0.00,,SKC,0.00,VWS V14.01,2013-01-22 23:56:00,
2013-01-22 19:01:00,55.9,40.5,30.23,North,11,1.0,3.0,56,0.00,,SKC,0.00,VWS V14.01,2013-01-23 00:01:00,
2013-01-22 19:07:00,55.8,40.4,30.24,North,11,3.0,3.0,56,0.00,,SKC,0.00,VWS V14.01,2013-01-23 00:07:00,
2013-01-22 19:12:00,55.7,40.3,30.24,North,11,2.0,3.0,56,0.00,,SKC,0.00,VWS V14.01,2013-01-23 00:12:00,
2013-01-22 19:17:00,55.6,40.2,30.24,North,11,3.0,4.0,56,0.00,,SKC,0.00,VWS V14.01,2013-01-23 00:17:00,
2013-01-22 19:22:00,55.5,40.5,30.24,North,11,2.0,3.0,57,0.00,,SKC,0.00,VWS V14.01,2013-01-23 00:22:00,
2013-01-22 19:27:00,55.5,40.1,30.24,North,11,2.0,4.0,56,0.00,,SKC,0.00,VWS V14.01,2013-01-23 00:27:00,
2013-01-22 19:32:00,55.4,40.4,30.24,North,11,2.0,3.0,57,0.00,,SKC,0.00,VWS V14.01,2013-01-23 00:32:00,
2013-01-22 19:36:00,55.4,40.4,30.24,North,11,2.0,3.0,57,0.00,,SKC,0.00,VWS V14.01,2013-01-23 00:36:00,
2013-01-22 19:42:00,55.3,40.3,30.24,North,11,2.0,5.0,57,0.00,,SKC,0.00,VWS V14.01,2013-01-23 00:42:00,
2013-01-22 19:47:00,55.2,41.1,30.24,North,11,1.0,3.0,59,0.00,,SKC,0.00,VWS V14.01,2013-01-23 00:47:00,
2013-01-22 19:52:00,55.0,40.5,30.24,North,11,2.0,3.0,58,0.00,,SKC,0.00,VWS V14.01,2013-01-23 00:52:00,
2013-01-22 19:57:00,54.9,40.0,30.24,North,11,1.0,4.0,57,0.00,,SKC,0.00,VWS V14.01,2013-01-23 00:57:00,
2013-01-22 20:02:00,54.7,40.2,30.25,North,11,4.0,4.0,58,0.00,,SKC,0.00,VWS V14.01,2013-01-23 01:02:00,
2013-01-22 20:07:00,54.7,39.8,30.25,North,11,2.0,4.0,57,0.00,,SKC,0.00,VWS V14.01,2013-01-23 01:07:00,
2013-01-22 20:12:00,54.7,40.2,30.25,NNE,17,2.0,4.0,58,0.00,,SKC,0.00,VWS V14.01,2013-01-23 01:12:00,
2013-01-22 20:17:00,54.6,40.1,30.25,NNE,15,4.0,5.0,58,0.00,,SKC,0.00,VWS V14.01,2013-01-23 01:17:00,
2013-01-22 20:22:00,54.6,40.1,30.25,NNE,14,2.0,3.0,58,0.00,,SKC,0.00,VWS V14.01,2013-01-23 01:22:00,
2013-01-22 20:27:00,54.6,40.1,30.25,NNE,14,1.0,3.0,58,0.00,,SKC,0.00,VWS V14.01,2013-01-23 01:27:00,
2013-01-22 20:32:00,54.5,40.5,30.25,NNE,14,2.0,3.0,59,0.00,,SKC,0.00,VWS V14.01,2013-01-23 01:32:00,
2013-01-22 20:37:00,54.5,40.9,30.25,NNE,14,2.0,4.0,60,0.00,,SKC,0.00,VWS V14.01,2013-01-23 01:37:00,
2013-01-22 20:42:00,54.4,40.8,30.25,NNE,14,1.0,4.0,60,0.00,,SKC,0.00,VWS V14.01,2013-01-23 01:42:00,
2013-01-22 20:47:00,54.3,40.7,30.26,NNE,14,1.0,2.0,60,0.00,,SKC,0.00,VWS V14.01,2013-01-23 01:47:00,
2013-01-22 20:52:00,54.2,40.6,30.26,NNE,14,3.0,3.0,60,0.00,,SKC,0.00,VWS V14.01,2013-01-23 01:52:00,
2013-01-22 20:57:00,54.2,40.2,30.26,NNE,28,2.0,3.0,59,0.00,,SKC,0.00,VWS V14.01,2013-01-23 01:57:00,
2013-01-22 21:02:00,54.1,40.1,30.26,NE,34,2.0,4.0,59,0.00,,SKC,0.00,VWS V14.01,2013-01-23 02:02:00,
2013-01-22 21:07:00,54.0,40.0,30.26,NNE,28,3.0,4.0,59,0.00,,SKC,0.00,VWS V14.01,2013-01-23 02:07:00,
2013-01-22 21:12:00,53.9,39.9,30.26,NNE,29,4.0,4.0,59,0.00,,SKC,0.00,VWS V14.01,2013-01-23 02:12:00,
2013-01-22 21:17:00,53.8,39.8,30.26,NNE,29,2.0,4.0,59,0.00,,SKC,0.00,VWS V14.01,2013-01-23 02:17:00,
2013-01-22 21:22:00,53.6,40.1,30.26,NNE,29,1.0,4.0,60,0.00,,SKC,0.00,VWS V14.01,2013-01-23 02:22:00,
2013-01-22 21:27:00,53.6,40.1,30.27,NNE,28,0.0,3.0,60,0.00,,SKC,0.00,VWS V14.01,2013-01-23 02:27:00,
2013-01-22 21:32:00,53.5,40.4,30.27,NNE,24,1.0,4.0,61,0.00,,SKC,0.00,VWS V14.01,2013-01-23 02:32:00,
2013-01-22 21:37:00,53.4,40.7,30.27,NNE,24,2.0,3.0,62,0.00,,SKC,0.00,VWS V14.01,2013-01-23 02:37:00,
2013-01-22 21:42:00,53.4,41.1,30.27,NNE,24,1.0,3.0,63,0.00,,SKC,0.00,VWS V14.01,2013-01-23 02:42:00,
2013-01-22 21:47:00,53.3,41.0,30.27,NNE,24,1.0,2.0,63,0.00,,SKC,0.00,VWS V14.01,2013-01-23 02:47:00,
2013-01-22 21:52:00,53.3,41.0,30.27,NNE,24,2.0,3.0,63,0.00,,SKC,0.00,VWS V14.01,2013-01-23 02:52:00,
2013-01-22 21:57:00,53.3,40.6,30.27,NNE,24,3.0,4.0,62,0.00,,SKC,0.00,VWS V14.01,2013-01-23 02:57:00,
2013-01-22 22:02:00,53.3,40.6,30.27,NNE,24,3.0,3.0,62,0.00,,SKC,0.00,VWS V14.01,2013-01-23 03:02:00,
2013-01-22 22:07:00,53.3,40.6,30.27,NNE,24,2.0,3.0,62,0.00,,SKC,0.00,VWS V14.01,2013-01-23 03:07:00,
2013-01-22 22:12:00,53.3,40.6,30.27,NNE,24,2.0,3.0,62,0.00,,SKC,0.00,VWS V14.01,2013-01-23 03:12:00,
2013-01-22 22:17:00,53.2,40.5,30.27,NNE,24,2.0,3.0,62,0.00,,SKC,0.00,VWS V14.01,2013-01-23 03:17:00,
2013-01-22 22:22:00,53.2,40.5,30.27,NNE,24,1.0,3.0,62,0.00,,SKC,0.00,VWS V14.01,2013-01-23 03:22:00,
2013-01-22 22:27:00,53.3,40.2,30.27,NNE,24,1.0,4.0,61,0.00,,SKC,0.00,VWS V14.01,2013-01-23 03:27:00,
2013-01-22 22:32:00,53.3,40.2,30.27,NNE,24,3.0,4.0,61,0.00,,SKC,0.00,VWS V14.01,2013-01-23 03:32:00,
2013-01-22 22:37:00,53.3,40.6,30.27,NNE,24,3.0,5.0,62,0.00,,SKC,0.00,VWS V14.01,2013-01-23 03:37:00,
2013-01-22 22:42:00,53.2,40.5,30.27,NNE,30,4.0,5.0,62,0.00,,SKC,0.00,VWS V14.01,2013-01-23 03:42:00,
2013-01-22 22:47:00,53.1,40.4,30.27,NNE,31,4.0,5.0,62,0.00,,SKC,0.00,VWS V14.01,2013-01-23 03:47:00,
2013-01-22 22:52:00,53.1,40.4,30.27,NE,36,3.0,4.0,62,0.00,,SKC,0.00,VWS V14.01,2013-01-23 03:52:00,
2013-01-22 22:57:00,53.1,40.0,30.26,NE,34,3.0,5.0,61,0.00,,SKC,0.00,VWS V14.01,2013-01-23 03:57:00,
2013-01-22 23:02:00,53.1,40.0,30.27,NNE,33,4.0,5.0,61,0.00,,SKC,0.00,VWS V14.01,2013-01-23 04:02:00,
2013-01-22 23:07:00,53.0,40.3,30.27,NNE,26,3.0,4.0,62,0.00,,SKC,0.00,VWS V14.01,2013-01-23 04:07:00,
2013-01-22 23:12:00,52.8,40.2,30.27,NNE,28,3.0,4.0,62,0.00,,SKC,0.00,VWS V14.01,2013-01-23 04:12:00,
2013-01-22 23:17:00,52.8,40.2,30.27,NNE,29,5.0,5.0,62,0.00,,SKC,0.00,VWS V14.01,2013-01-23 04:17:00,
2013-01-22 23:22:00,52.7,40.5,30.27,NNE,28,2.0,4.0,63,0.00,,SKC,0.00,VWS V14.01,2013-01-23 04:22:00,
2013-01-22 23:27:00,52.6,40.4,30.27,NE,36,2.0,4.0,63,0.00,,SKC,0.00,VWS V14.01,2013-01-23 04:27:00,
2013-01-22 23:32:00,52.8,39.7,30.26,NE,40,1.0,3.0,61,0.00,,SKC,0.00,VWS V14.01,2013-01-23 04:32:00,
2013-01-22 23:37:00,52.8,39.7,30.26,NE,40,2.0,3.0,61,0.00,,SKC,0.00,VWS V14.01,2013-01-23 04:37:00,
2013-01-22 23:42:00,52.9,39.4,30.27,NE,40,2.0,3.0,60,0.00,,SKC,0.00,VWS V14.01,2013-01-23 04:42:00,
2013-01-22 23:47:00,53.0,39.5,30.26,NE,40,2.0,3.0,60,0.00,,SKC,0.00,VWS V14.01,2013-01-23 04:47:00,
2013-01-22 23:52:00,53.0,39.1,30.27,NE,40,1.0,3.0,59,0.00,,SKC,0.00,VWS V14.01,2013-01-23 04:52:00,
2013-01-22 23:57:00,53.0,39.1,30.27,NE,40,0.0,2.0,59,0.00,,SKC,0.00,VWS V14.01,2013-01-23 04:57:00,